Location: Fond Mahaut
(18.0707°N, 63.0465°W)
Time: 23:09:54
(UTC+00:00)

Cosmos 1743 - Pass Details

Date: 08 December 2019
Orbit: 512 x 526 km, 82.6° (Epoch: 20 January)

Event Time Altitude Azimuth Distance (km) Brightness Sun altitude
Exits shadow 22:49:01 34° 90° (E) 869 3.3 -16.9°
Drops below altitude 10° 22:52:24 10° 150° (SSE) 1,758 5.3 -17.6°
Sets 22:54:40 0° 160° (SSE) 2,646 6.3 -18.2°
